| time (UTC) | temp C | wind direction | speed KPH | gust KPH | rain 1hr cm | rain 24hr cm | rain mn cm | humidity % | barometer mb |
| 20260906113120 | 21 | 149 | 0.0 | 0.0 | 0.00 | 0.00 | 0.00 | 99 | 1014.8 |
| 20260906112620 | 21 | 149 | 0.0 | 0.0 | 0.00 | 0.00 | 0.00 | 99 | 1014.8 |
| 20260906112117 | 21 | 149 | 0.0 | 0.0 | 0.00 | 0.00 | 0.00 | 99 | 1014.7 |
| 20260906111616 | 21 | 149 | 0.0 | 0.0 | 0.00 | 0.00 | 0.00 | 99 | 1014.8 |
| 20260906111112 | 21 | 149 | 0.0 | 0.0 | 0.00 | 0.00 | 0.00 | 99 | 1014.8 |
| 20260906110612 | 22 | 149 | 0.0 | 0.0 | 0.00 | 0.00 | 0.00 | 99 | 1014.8 |
| 20260906110106 | 22 | 149 | 0.0 | 0.0 | 0.00 | 0.00 | 0.00 | 99 | 1014.4 |
| 20260906105601 | 22 | 148 | 0.0 | 0.0 | 0.00 | 0.00 | 0.00 | 99 | 1014.7 |
| 20260906105057 | 22 | 148 | 0.0 | 0.0 | 0.00 | 0.00 | 0.00 | 99 | 1014.7 |
| 20260906104555 | 22 | 148 | 0.0 | 0.0 | 0.00 | 0.00 | 0.00 | 99 | 1014.4 |
| 20260906104049 | 22 | 148 | 0.0 | 0.0 | 0.00 | 0.00 | 0.00 | 99 | 1014.3 |
| 20260906103547 | 22 | 148 | 0.0 | 0.0 | 0.00 | 0.00 | 0.00 | 99 | 1014.5 |
| 20260906103043 | 22 | 148 | 0.0 | 0.0 | 0.00 | 0.00 | 0.00 | 99 | 1014.4 |
| 20260906102543 | 22 | 148 | 0.0 | 0.0 | 0.00 | 0.00 | 0.00 | 99 | 1014.4 |
| 20260906102038 | 22 | 148 | 0.0 | 0.0 | 0.00 | 0.00 | 0.00 | 99 | 1014.3 |
| 20260906101533 | 22 | 148 | 0.0 | 0.0 | 0.00 | 0.00 | 0.00 | 99 | 1014.4 |
| 20260906101028 | 22 | 148 | 0.0 | 0.0 | 0.00 | 0.00 | 0.00 | 99 | 1014.5 |
| 20260906100523 | 22 | 148 | 0.0 | 0.0 | 0.00 | 0.00 | 0.00 | 99 | 1014.4 |
| 20260906100024 | 22 | 148 | 0.0 | 0.0 | 0.00 | 0.00 | 0.00 | 99 | 1014.5 |
| 20260906095518 | 22 | 148 | 0.0 | 0.0 | 0.00 | 0.00 | 0.00 | 99 | 1014.3 |
| 20260906095014 | 22 | 148 | 0.0 | 0.0 | 0.00 | 0.00 | 0.00 | 99 | 1014.4 |
| 20260906094512 | 22 | 148 | 0.0 | 0.0 | 0.00 | 0.00 | 0.00 | 99 | 1014.1 |
| 20260906094009 | 22 | 148 | 0.0 | 0.0 | 0.00 | 0.00 | 0.00 | 99 | 1014.1 |
| 20260906093505 | 22 | 148 | 0.0 | 0.0 | 0.00 | 0.00 | 0.00 | 99 | 1014.1 |
| 20260906092959 | 22 | 148 | 0.0 | 0.0 | 0.00 | 0.00 | 0.00 | 99 | 1014.2 |
| 20260906092459 | 22 | 148 | 0.0 | 0.0 | 0.00 | 0.00 | 0.00 | 99 | 1014.2 |
| 20260906091954 | 22 | 148 | 0.0 | 0.0 | 0.00 | 0.00 | 0.00 | 99 | 1014.2 |
| 20260906091445 | 22 | 148 | 0.0 | 0.0 | 0.00 | 0.00 | 0.00 | 99 | 1014.3 |
| 20260906090941 | 22 | 148 | 0.0 | 0.0 | 0.00 | 0.00 | 0.00 | 99 | 1014.1 |
| 20260906090436 | 22 | 148 | 0.0 | 0.0 | 0.00 | 0.00 | 0.00 | 99 | 1014.0 |
| 20260906085935 | 22 | 148 | 0.0 | 0.0 | 0.00 | 0.00 | 0.00 | 99 | 1014.1 |
| 20260906085435 | 22 | 148 | 0.0 | 0.0 | 0.00 | 0.00 | 0.00 | 99 | 1014.1 |
| 20260906084934 | 22 | 148 | 0.0 | 0.0 | 0.00 | 0.00 | 0.00 | 99 | 1013.9 |
| 20260906084429 | 22 | 147 | 0.0 | 0.0 | 0.00 | 0.00 | 0.00 | 99 | 1014.2 |
| 20260906083928 | 22 | 144 | 0.0 | 0.0 | 0.00 | 0.00 | 0.00 | 99 | 1014.1 |
| 20260906083424 | 22 | 147 | 0.0 | 0.0 | 0.00 | 0.00 | 0.00 | 99 | 1014.3 |
| 20260906082923 | 22 | 141 | 0.0 | 0.0 | 0.00 | 0.00 | 0.00 | 99 | 1014.3 |
| 20260906082419 | 22 | 153 | 0.0 | 0.0 | 0.00 | 0.00 | 0.00 | 99 | 1014.3 |
| 20260906081914 | 22 | 155 | 0.0 | 0.0 | 0.00 | 0.00 | 0.00 | 99 | 1013.9 |
| 20260906081409 | 22 | 151 | 0.0 | 0.0 | 0.00 | 0.00 | 0.00 | 99 | 1014.2 |
| 20260906080906 | 22 | 150 | 0.0 | 0.0 | 0.00 | 0.00 | 0.00 | 99 | 1014.2 |
| 20260906080402 | 22 | 149 | 0.0 | 0.0 | 0.00 | 0.00 | 0.00 | 99 | 1014.2 |
| 20260906075901 | 22 | 170 | 0.0 | 0.0 | 0.00 | 0.00 | 0.00 | 99 | 1014.5 |
| 20260906075356 | 22 | 165 | 0.0 | 0.0 | 0.00 | 0.00 | 0.00 | 99 | 1014.2 |
| 20260906074852 | 22 | 120 | 0.0 | 0.0 | 0.00 | 0.00 | 0.00 | 99 | 1014.4 |
| 20260906074351 | 22 | 170 | 0.0 | 0.0 | 0.00 | 0.00 | 0.00 | 99 | 1014.5 |
| 20260906073850 | 22 | 170 | 0.0 | 0.0 | 0.00 | 0.00 | 0.00 | 99 | 1014.6 |
| 20260906073345 | 22 | 168 | 0.0 | 0.0 | 0.00 | 0.00 | 0.00 | 99 | 1014.7 |
| 20260906072842 | 22 | 168 | 0.0 | 0.0 | 0.00 | 0.00 | 0.00 | 99 | 1014.5 |
| 20260906072337 | 22 | 180 | 0.0 | 0.0 | 0.00 | 0.00 | 0.00 | 99 | 1014.5 |
| 20260906071833 | 22 | 176 | 0.0 | 0.0 | 0.00 | 0.00 | 0.00 | 99 | 1014.1 |
| 20260906071328 | 22 | 182 | 0.0 | 0.0 | 0.00 | 0.00 | 0.00 | 99 | 1014.5 |
| 20260906070824 | 22 | 184 | 0.0 | 0.0 | 0.00 | 0.00 | 0.00 | 99 | 1014.1 |
| 20260906070319 | 23 | 182 | 0.0 | 0.0 | 0.00 | 0.00 | 0.00 | 99 | 1014.1 |
| 20260906065814 | 23 | 198 | 0.0 | 0.0 | 0.00 | 0.00 | 0.00 | 99 | 1013.7 |
| 20260906065309 | 23 | 198 | 0.0 | 0.0 | 0.00 | 0.00 | 0.00 | 99 | 1013.8 |
| 20260906064805 | 23 | 198 | 0.0 | 0.0 | 0.00 | 0.00 | 0.00 | 99 | 1013.9 |
| 20260906064301 | 23 | 197 | 0.0 | 0.0 | 0.00 | 0.00 | 0.00 | 99 | 1013.8 |
| 20260906063755 | 23 | 197 | 0.0 | 0.0 | 0.00 | 0.00 | 0.00 | 99 | 1013.9 |
| 20260906063251 | 23 | 197 | 0.0 | 0.0 | 0.00 | 0.00 | 0.00 | 99 | 1014.1 |
| 20260906062745 | 23 | 197 | 0.0 | 0.0 | 0.00 | 0.00 | 0.00 | 99 | 1014.0 |
| 20260906062239 | 23 | 197 | 0.0 | 0.0 | 0.00 | 0.00 | 0.00 | 99 | 1014.1 |
| 20260906061735 | 23 | 198 | 0.0 | 0.0 | 0.00 | 0.00 | 0.00 | 99 | 1014.3 |
| 20260906061231 | 23 | 206 | 0.0 | 0.0 | 0.00 | 0.00 | 0.00 | 99 | 1014.2 |
| 20260906060726 | 23 | 206 | 0.0 | 0.0 | 0.00 | 0.00 | 0.00 | 99 | 1014.3 |
| 20260906060224 | 23 | 206 | 0.0 | 0.0 | 0.00 | 0.00 | 0.00 | 99 | 1014.2 |
| 20260906055719 | 23 | 206 | 0.0 | 0.0 | 0.00 | 0.00 | 0.00 | 99 | 1014.4 |
| 20260906055214 | 23 | 205 | 0.0 | 0.0 | 0.00 | 0.00 | 0.00 | 99 | 1014.6 |
| 20260906054709 | 23 | 206 | 0.0 | 0.0 | 0.00 | 0.00 | 0.00 | 99 | 1014.4 |
| 20260906054204 | 23 | 206 | 0.0 | 0.0 | 0.00 | 0.00 | 0.00 | 99 | 1014.6 |
| 20260906053701 | 23 | 206 | 0.0 | 0.0 | 0.00 | 0.00 | 0.00 | 99 | 1014.5 |
| 20260906053155 | 23 | 213 | 0.0 | 0.0 | 0.00 | 0.00 | 0.00 | 99 | 1014.8 |
| 20260906052645 | 23 | 162 | 0.0 | 0.0 | 0.00 | 0.00 | 0.00 | 99 | 1014.8 |
| 20260906052142 | 23 | 162 | 0.0 | 0.0 | 0.00 | 0.00 | 0.00 | 99 | 1014.8 |
| 20260906051638 | 23 | 162 | 0.0 | 0.0 | 0.00 | 0.00 | 0.00 | 99 | 1014.8 |
| 20260906051137 | 23 | 161 | 0.0 | 0.0 | 0.00 | 0.00 | 0.00 | 99 | 1014.4 |
| 20260906050633 | 23 | 168 | 0.0 | 0.0 | 0.00 | 0.00 | 0.00 | 99 | 1014.4 |
| 20260906050128 | 23 | 168 | 0.0 | 0.0 | 0.00 | 0.00 | 0.00 | 99 | 1014.7 |
| 20260906045626 | 23 | 168 | 0.0 | 0.0 | 0.00 | 0.00 | 0.00 | 99 | 1014.7 |
| 20260906045122 | 23 | 168 | 0.0 | 0.0 | 0.00 | 0.00 | 0.00 | 99 | 1014.8 |
| 20260906044618 | 23 | 168 | 0.0 | 0.0 | 0.00 | 0.00 | 0.00 | 99 | 1015.1 |
| 20260906044113 | 23 | 168 | 0.0 | 0.0 | 0.00 | 0.00 | 0.00 | 99 | 1015.1 |
| 20260906043609 | 23 | 168 | 0.0 | 0.0 | 0.00 | 0.00 | 0.00 | 99 | 1015.0 |
| 20260906043104 | 23 | 168 | 0.0 | 0.0 | 0.00 | 0.00 | 0.00 | 99 | 1015.1 |
| 20260906042603 | 23 | 169 | 0.0 | 0.0 | 0.00 | 0.00 | 0.00 | 99 | 1014.9 |
| 20260906042058 | 23 | 168 | 0.0 | 0.0 | 0.00 | 0.00 | 0.00 | 99 | 1015.1 |
| 20260906041554 | 23 | 168 | 0.0 | 0.0 | 0.00 | 0.00 | 0.00 | 99 | 1015.2 |
| 20260906041049 | 23 | 168 | 0.0 | 0.0 | 0.00 | 0.00 | 0.00 | 99 | 1015.2 |
| 20260906040543 | 23 | 168 | 0.0 | 0.0 | 0.00 | 0.00 | 0.00 | 99 | 1015.1 |
| 20260906040034 | 23 | 168 | 0.0 | 0.0 | 0.00 | 0.15 | 0.15 | 99 | 1015.3 |
| 20260906035528 | 23 | 168 | 0.0 | 0.0 | 0.00 | 0.15 | 0.15 | 99 | 1015.2 |
| 20260906035025 | 23 | 168 | 0.0 | 0.0 | 0.00 | 0.15 | 0.15 | 99 | 1015.2 |
| 20260906034524 | 23 | 168 | 0.0 | 0.0 | 0.00 | 0.15 | 0.15 | 99 | 1015.2 |
| 20260906034020 | 23 | 168 | 0.0 | 0.0 | 0.00 | 0.15 | 0.15 | 99 | 1015.3 |
| 20260906033515 | 23 | 168 | 0.0 | 0.0 | 0.00 | 0.15 | 0.15 | 99 | 1015.0 |
| 20260906033010 | 23 | 168 | 0.0 | 0.0 | 0.00 | 0.15 | 0.15 | 99 | 1015.1 |
| 20260906032507 | 23 | 167 | 0.0 | 0.0 | 0.00 | 0.15 | 0.15 | 99 | 1015.0 |
| 20260906032007 | 23 | 167 | 0.0 | 0.0 | 0.00 | 0.15 | 0.15 | 99 | 1015.1 |
| 20260906031503 | 23 | 169 | 0.0 | 0.0 | 0.00 | 0.15 | 0.15 | 99 | 1015.1 |
| 20260906030957 | 23 | 168 | 0.0 | 0.0 | 0.00 | 0.15 | 0.15 | 99 | 1015.3 |
| 20260906030451 | 23 | 168 | 0.0 | 0.0 | 0.00 | 0.15 | 0.15 | 99 | 1015.1 |
| 20260906025946 | 23 | 168 | 0.0 | 0.0 | 0.00 | 0.15 | 0.15 | 99 | 1015.2 |
| 20260906025440 | 23 | 168 | 0.0 | 0.0 | 0.00 | 0.15 | 0.15 | 99 | 1014.9 |
| 20260906024938 | 23 | 169 | 0.0 | 0.0 | 0.00 | 0.15 | 0.15 | 99 | 1014.8 |
| 20260906024433 | 23 | 169 | 0.0 | 0.0 | 0.00 | 0.15 | 0.15 | 99 | 1014.6 |
| 20260906023933 | 23 | 169 | 0.0 | 0.0 | 0.00 | 0.15 | 0.15 | 99 | 1014.7 |
| 20260906023429 | 23 | 169 | 0.0 | 0.0 | 0.00 | 0.15 | 0.15 | 99 | 1014.6 |
| 20260906022924 | 23 | 169 | 0.0 | 0.0 | 0.00 | 0.15 | 0.15 | 99 | 1014.7 |
| 20260906022419 | 23 | 169 | 0.0 | 0.0 | 0.00 | 0.15 | 0.15 | 99 | 1014.2 |
| 20260906021915 | 23 | 169 | 0.0 | 0.0 | 0.00 | 0.15 | 0.15 | 99 | 1014.5 |
| 20260906021414 | 24 | 169 | 0.0 | 0.0 | 0.00 | 0.15 | 0.15 | 99 | 1014.6 |
| 20260906020908 | 24 | 169 | 0.0 | 0.0 | 0.00 | 0.15 | 0.15 | 99 | 1014.6 |
| 20260906020403 | 23 | 169 | 0.0 | 0.0 | 0.00 | 0.15 | 0.15 | 99 | 1014.4 |
| 20260906015857 | 24 | 169 | 0.0 | 0.0 | 0.00 | 0.15 | 0.15 | 99 | 1014.4 |
| 20260906015356 | 24 | 169 | 0.0 | 0.0 | 0.00 | 0.15 | 0.15 | 99 | 1014.2 |
| 20260906014851 | 24 | 169 | 0.0 | 0.0 | 0.00 | 0.15 | 0.15 | 99 | 1014.5 |
| 20260906014351 | 24 | 169 | 0.0 | 0.0 | 0.00 | 0.15 | 0.15 | 99 | 1014.2 |
| 20260906013847 | 24 | 169 | 0.0 | 0.0 | 0.00 | 0.15 | 0.15 | 99 | 1014.4 |
| 20260906013342 | 24 | 169 | 0.0 | 0.0 | 0.00 | 0.15 | 0.15 | 99 | 1014.3 |
| 20260906012838 | 24 | 169 | 0.0 | 0.0 | 0.00 | 0.15 | 0.15 | 99 | 1014.3 |
| 20260906012333 | 24 | 169 | 0.0 | 0.0 | 0.00 | 0.15 | 0.15 | 98 | 1014.4 |
| 20260906011832 | 24 | 169 | 0.0 | 0.0 | 0.00 | 0.15 | 0.15 | 98 | 1014.0 |
| 20260906011327 | 24 | 169 | 0.0 | 0.0 | 0.00 | 0.15 | 0.15 | 98 | 1014.4 |
| 20260906010824 | 25 | 169 | 0.0 | 0.0 | 0.00 | 0.15 | 0.15 | 98 | 1014.2 |
| 20260906010319 | 25 | 169 | 0.0 | 0.0 | 0.00 | 0.15 | 0.15 | 98 | 1014.2 |
| 20260906005814 | 25 | 169 | 0.0 | 0.0 | 0.00 | 0.15 | 0.15 | 97 | 1014.3 |
| 20260906005313 | 25 | 169 | 0.0 | 0.0 | 0.00 | 0.15 | 0.15 | 97 | 1014.0 |
| 20260906004807 | 25 | 169 | 0.0 | 0.0 | 0.00 | 0.15 | 0.15 | 97 | 1014.4 |
| 20260906004307 | 25 | 169 | 0.0 | 0.0 | 0.00 | 0.15 | 0.15 | 97 | 1014.1 |
| 20260906003802 | 25 | 169 | 0.0 | 0.0 | 0.00 | 0.15 | 0.15 | 96 | 1014.1 |
| 20260906003257 | 25 | 169 | 0.0 | 0.0 | 0.00 | 0.15 | 0.15 | 96 | 1014.2 |
| 20260906002752 | 25 | 169 | 0.0 | 0.0 | 0.00 | 0.15 | 0.15 | 96 | 1013.9 |
| 20260906002246 | 25 | 169 | 0.0 | 0.0 | 0.00 | 0.15 | 0.15 | 95 | 1014.0 |
| 20260906001742 | 25 | 169 | 0.0 | 0.0 | 0.00 | 0.15 | 0.15 | 95 | 1014.0 |
| 20260906001237 | 25 | 169 | 0.0 | 0.0 | 0.00 | 0.15 | 0.15 | 94 | 1013.9 |
| 20260906000733 | 25 | 168 | 0.0 | 0.0 | 0.00 | 0.15 | 0.15 | 94 | 1014.1 |
| 20260906000234 | 25 | 169 | 0.0 | 0.0 | 0.00 | 0.15 | 0.15 | 93 | 1014.5 |
| 20260905235732 | 25 | 169 | 0.0 | 0.0 | 0.00 | 0.15 | 0.15 | 93 | 1014.3 |
| 20260905235227 | 26 | 167 | 0.0 | 0.0 | 0.00 | 0.15 | 0.15 | 92 | 1014.1 |
| 20260905234723 | 26 | 166 | 0.0 | 0.0 | 0.00 | 0.15 | 0.15 | 93 | 1014.3 |
| 20260905234218 | 26 | 211 | 0.0 | 0.0 | 0.00 | 0.15 | 0.15 | 93 | 1014.2 |
| 20260905233713 | 26 | 211 | 0.0 | 0.0 | 0.00 | 0.15 | 0.15 | 93 | 1014.2 |
| 20260905233212 | 26 | 211 | 0.0 | 0.0 | 0.00 | 0.15 | 0.15 | 92 | 1013.8 |
| 20260905232707 | 26 | 211 | 0.0 | 0.0 | 0.00 | 0.15 | 0.15 | 92 | 1014.0 |
| 20260905232203 | 26 | 212 | 0.0 | 0.0 | 0.00 | 0.15 | 0.15 | 91 | 1014.2 |
| 20260905231658 | 26 | 212 | 0.0 | 0.0 | 0.00 | 0.15 | 0.15 | 90 | 1014.1 |
| 20260905231154 | 26 | 213 | 0.0 | 0.0 | 0.00 | 0.15 | 0.15 | 89 | 1014.2 |
| 20260905230650 | 27 | 213 | 0.0 | 0.0 | 0.00 | 0.15 | 0.15 | 89 | 1014.0 |
| 20260905230148 | 27 | 213 | 0.0 | 0.0 | 0.00 | 0.15 | 0.15 | 88 | 1014.0 |
| 20260905225647 | 27 | 218 | 0.0 | 0.0 | 0.00 | 0.15 | 0.15 | 87 | 1014.1 |
| 20260905225142 | 27 | 211 | 0.0 | 0.0 | 0.00 | 0.15 | 0.15 | 88 | 1014.3 |
| 20260905224641 | 27 | 167 | 0.0 | 0.0 | 0.00 | 0.15 | 0.15 | 87 | 1014.0 |
| 20260905224136 | 27 | 149 | 0.0 | 0.0 | 0.00 | 0.15 | 0.15 | 84 | 1014.1 |
| 20260905223633 | 27 | 199 | 0.0 | 0.0 | 0.00 | 0.15 | 0.15 | 88 | 1013.8 |
| 20260905223129 | 27 | 203 | 0.0 | 0.0 | 0.00 | 0.15 | 0.15 | 86 | 1014.1 |
| 20260905222625 | 27 | 115 | 0.0 | 0.0 | 0.00 | 0.15 | 0.15 | 85 | 1014.0 |
| 20260905222120 | 27 | 153 | 0.0 | 0.0 | 0.00 | 0.15 | 0.15 | 85 | 1013.8 |
| 20260905221615 | 27 | 172 | 0.0 | 0.0 | 0.00 | 0.15 | 0.15 | 85 | 1014.1 |
| 20260905221112 | 27 | 168 | 0.0 | 0.0 | 0.00 | 0.15 | 0.15 | 84 | 1014.1 |
| 20260905220606 | 27 | 187 | 0.0 | 0.0 | 0.00 | 0.15 | 0.15 | 83 | 1014.0 |
| 20260905215602 | 27 | 187 | 0.0 | 0.0 | 0.00 | 0.15 | 0.15 | 83 | 1014.1 |
| 20260905215052 | 27 | 187 | 0.0 | 0.0 | 0.00 | 0.15 | 0.15 | 82 | 1014.3 |
| 20260905214549 | 27 | 207 | 0.0 | 0.0 | 0.00 | 0.15 | 0.15 | 81 | 1014.3 |
| 20260905214049 | 27 | 208 | 0.0 | 0.0 | 0.00 | 0.15 | 0.15 | 84 | 1014.4 |
| 20260905213543 | 27 | 209 | 0.0 | 0.0 | 0.00 | 0.15 | 0.15 | 83 | 1014.3 |
| 20260905213039 | 27 | 209 | 0.0 | 0.0 | 0.00 | 0.15 | 0.15 | 81 | 1014.5 |
| 20260905212534 | 27 | 197 | 0.0 | 0.0 | 0.00 | 0.15 | 0.15 | 85 | 1014.5 |
| 20260905212034 | 27 | 174 | 0.0 | 0.0 | 0.00 | 0.15 | 0.15 | 83 | 1014.7 |
| 20260905211529 | 27 | 207 | 0.0 | 0.0 | 0.00 | 0.15 | 0.15 | 85 | 1014.6 |
| 20260905211025 | 27 | 220 | 0.0 | 0.0 | 0.00 | 0.15 | 0.15 | 83 | 1014.5 |
| 20260905210520 | 27 | 49 | 0.0 | 0.0 | 0.00 | 0.15 | 0.15 | 83 | 1014.8 |
| 20260905210020 | 27 | 143 | 0.0 | 0.0 | 0.00 | 0.15 | 0.15 | 85 | 1014.5 |
| 20260905205514 | 27 | 71 | 0.0 | 3.2 | 0.00 | 0.15 | 0.15 | 84 | 1014.3 |
| 20260905205013 | 27 | 181 | 0.0 | 0.0 | 0.00 | 0.15 | 0.15 | 85 | 1014.3 |
| 20260905204508 | 27 | 215 | 0.0 | 0.0 | 0.00 | 0.15 | 0.15 | 84 | 1014.5 |
| 20260905204009 | 27 | 191 | 0.0 | 0.0 | 0.00 | 0.15 | 0.15 | 84 | 1014.5 |
| 20260905203503 | 27 | 220 | 0.0 | 3.2 | 0.00 | 0.15 | 0.15 | 84 | 1014.8 |
| 20260905202959 | 27 | 217 | 0.0 | 0.0 | 0.00 | 0.15 | 0.15 | 86 | 1014.8 |
| 20260905202454 | 27 | 126 | 0.0 | 0.0 | 0.00 | 0.15 | 0.15 | 85 | 1014.8 |
| 20260905201950 | 27 | 211 | 0.0 | 0.0 | 0.00 | 0.15 | 0.15 | 86 | 1014.8 |
| 20260905201444 | 27 | 188 | 0.0 | 0.0 | 0.00 | 0.15 | 0.15 | 85 | 1015.0 |
| 20260905200944 | 28 | 253 | 0.0 | 1.6 | 0.00 | 0.15 | 0.15 | 87 | 1015.2 |
| 20260905200440 | 28 | 210 | 0.0 | 0.0 | 0.00 | 0.15 | 0.15 | 86 | 1015.2 |
| 20260905195939 | 27 | 196 | 0.0 | 0.0 | 0.00 | 0.15 | 0.15 | 87 | 1015.2 |
| 20260905195434 | 27 | 191 | 0.0 | 0.0 | 0.00 | 0.15 | 0.15 | 87 | 1015.1 |
| 20260905194930 | 27 | 304 | 0.0 | 1.6 | 0.00 | 0.15 | 0.15 | 88 | 1015.2 |
| 20260905194428 | 26 | 202 | 0.0 | 0.0 | 0.00 | 0.15 | 0.15 | 90 | 1015.2 |
| 20260905193923 | 26 | 17 | 1.6 | 3.2 | 0.00 | 0.15 | 0.15 | 90 | 1015.5 |
| 20260905193418 | 26 | 218 | 0.0 | 0.0 | 0.00 | 0.15 | 0.15 | 92 | 1015.2 |
| 20260905192913 | 26 | 180 | 0.0 | 0.0 | 0.00 | 0.15 | 0.15 | 95 | 1015.1 |
| 20260905192408 | 25 | 200 | 0.0 | 0.0 | 0.00 | 0.15 | 0.15 | 97 | 1015.5 |
| 20260905191909 | 24 | 199 | 0.0 | 0.0 | 0.00 | 0.15 | 0.15 | 97 | 1015.5 |
| 20260905191408 | 24 | 189 | 0.0 | 0.0 | 0.00 | 0.15 | 0.15 | 99 | 1015.5 |
| 20260905190903 | 23 | 170 | 0.0 | 0.0 | 0.00 | 0.15 | 0.15 | 99 | 1016.0 |
| 20260905190400 | 23 | 170 | 0.0 | 0.0 | 0.00 | 0.15 | 0.15 | 99 | 1015.8 |
| 20260905185859 | 23 | 169 | 0.0 | 0.0 | 0.00 | 0.15 | 0.15 | 99 | 1015.9 |
| 20260905185355 | 23 | 169 | 0.0 | 0.0 | 0.00 | 0.15 | 0.15 | 99 | 1016.2 |
| 20260905184854 | 23 | 171 | 0.0 | 0.0 | 0.00 | 0.15 | 0.15 | 99 | 1015.9 |
| 20260905184353 | 23 | 175 | 0.0 | 0.0 | 0.00 | 0.15 | 0.15 | 99 | 1015.9 |
| 20260905183846 | 23 | 174 | 0.0 | 0.0 | 0.00 | 0.15 | 0.15 | 99 | 1015.4 |
| 20260905183341 | 23 | 192 | 0.0 | 0.0 | 0.00 | 0.15 | 0.15 | 99 | 1016.0 |
| 20260905182836 | 23 | 193 | 0.0 | 0.0 | 0.00 | 0.15 | 0.15 | 99 | 1015.4 |
| 20260905182335 | 23 | 171 | 0.0 | 0.0 | 0.00 | 0.15 | 0.15 | 99 | 1015.4 |
| 20260905181831 | 23 | 204 | 0.0 | 0.0 | 0.00 | 0.15 | 0.15 | 98 | 1015.9 |
| 20260905181330 | 23 | 159 | 0.0 | 0.0 | 0.00 | 0.15 | 0.15 | 96 | 1016.2 |
| 20260905180829 | 23 | 135 | 0.0 | 0.0 | 0.30 | 0.15 | 0.15 | 95 | 1016.5 |
| 20260905180325 | 25 | 226 | 0.0 | 1.6 | 0.89 | 0.15 | 0.15 | 93 | 1016.6 |
| 20260905175819 | 26 | 153 | 0.0 | 0.0 | 0.61 | 0.10 | 0.10 | 85 | 1016.5 |
| 20260905175314 | 27 | 187 | 0.0 | 3.2 | 0.00 | 0.00 | 0.00 | 75 | 1016.7 |
| 20260905174809 | 28 | 270 | 6.4 | 9.7 | 0.00 | 0.00 | 0.00 | 70 | 1016.4 |
| 20260905174305 | 29 | 212 | 0.0 | 3.2 | 0.00 | 0.00 | 0.00 | 71 | 1016.5 |
| 20260905173801 | 30 | 165 | 0.0 | 0.0 | 0.00 | 0.00 | 0.00 | 71 | 1016.5 |
| 20260905173257 | 30 | 155 | 0.0 | 1.6 | 0.00 | 0.00 | 0.00 | 70 | 1016.3 |
| 20260905172756 | 31 | 117 | 0.0 | 1.6 | 0.00 | 0.00 | 0.00 | 69 | 1016.3 |
| 20260905172254 | 32 | 110 | 3.2 | 8.0 | 0.00 | 0.00 | 0.00 | 68 | 1016.2 |
| 20260905171751 | 33 | 203 | 0.0 | 1.6 | 0.00 | 0.00 | 0.00 | 68 | 1016.1 |
| 20260905171247 | 33 | 235 | 0.0 | 0.0 | 0.00 | 0.00 | 0.00 | 67 | 1016.0 |
| 20260905170743 | 33 | 135 | 0.0 | 0.0 | 0.00 | 0.00 | 0.00 | 67 | 1016.0 |
| 20260905170239 | 32 | 146 | 0.0 | 0.0 | 0.00 | 0.00 | 0.00 | 68 | 1016.0 |
| 20260905165738 | 32 | 189 | 0.0 | 3.2 | 0.00 | 0.00 | 0.00 | 69 | 1016.0 |
| 20260905165234 | 32 | 55 | 0.0 | 1.6 | 0.00 | 0.00 | 0.00 | 69 | 1016.1 |
| 20260905164733 | 32 | 179 | 3.2 | 4.8 | 0.00 | 0.00 | 0.00 | 70 | 1016.5 |
| 20260905164228 | 32 | 244 | 0.0 | 0.0 | 0.00 | 0.00 | 0.00 | 70 | 1016.8 |
| 20260905163725 | 31 | 180 | 0.0 | 3.2 | 0.00 | 0.00 | 0.00 | 73 | 1016.7 |
| 20260905163220 | 31 | 181 | 0.0 | 3.2 | 0.00 | 0.00 | 0.00 | 72 | 1016.6 |
| 20260905162716 | 31 | 149 | 0.0 | 0.0 | 0.00 | 0.00 | 0.00 | 71 | 1016.6 |
| 20260905162216 | 31 | 208 | 0.0 | 0.0 | 0.00 | 0.00 | 0.00 | 75 | 1016.8 |
| 20260905161711 | 31 | 199 | 0.0 | 0.0 | 0.00 | 0.00 | 0.00 | 74 | 1016.6 |
| 20260905161209 | 30 | 195 | 0.0 | 0.0 | 0.00 | 0.00 | 0.00 | 75 | 1016.5 |
| 20260905160708 | 30 | 190 | 0.0 | 0.0 | 0.00 | 0.00 | 0.00 | 76 | 1016.7 |
| 20260905160207 | 30 | 227 | 1.6 | 3.2 | 0.00 | 0.00 | 0.00 | 78 | 1016.6 |
| 20260905155702 | 30 | 301 | 1.6 | 3.2 | 0.00 | 0.00 | 0.00 | 78 | 1016.5 |
| 20260905155202 | 29 | 181 | 0.0 | 0.0 | 0.00 | 0.00 | 0.00 | 81 | 1016.6 |
| 20260905154655 | 28 | 225 | 0.0 | 0.0 | 0.00 | 0.00 | 0.00 | 81 | 1016.5 |
| 20260905154151 | 29 | 223 | 0.0 | 0.0 | 0.00 | 0.00 | 0.00 | 82 | 1016.5 |
| 20260905153646 | 28 | 208 | 0.0 | 0.0 | 0.00 | 0.00 | 0.00 | 83 | 1016.6 |
| 20260905153137 | 28 | 209 | 0.0 | 0.0 | 0.00 | 0.00 | 0.00 | 83 | 1016.6 |
| 20260905152631 | 28 | 207 | 0.0 | 0.0 | 0.00 | 0.00 | 0.00 | 83 | 1016.9 |
| 20260905152126 | 28 | 176 | 0.0 | 0.0 | 0.00 | 0.00 | 0.00 | 84 | 1016.7 |
| 20260905151621 | 28 | 203 | 0.0 | 0.0 | 0.00 | 0.00 | 0.00 | 82 | 1017.0 |
| 20260905151116 | 28 | 159 | 0.0 | 0.0 | 0.00 | 0.00 | 0.00 | 82 | 1016.9 |
| 20260905150612 | 28 | 106 | 0.0 | 0.0 | 0.00 | 0.00 | 0.00 | 82 | 1016.8 |
| 20260905150110 | 28 | 140 | 0.0 | 0.0 | 0.00 | 0.00 | 0.00 | 82 | 1017.0 |
| 20260905145608 | 28 | 205 | 0.0 | 0.0 | 0.00 | 0.00 | 0.00 | 83 | 1017.0 |
| 20260905145102 | 28 | 205 | 0.0 | 0.0 | 0.00 | 0.00 | 0.00 | 83 | 1017.1 |
| 20260905144557 | 28 | 145 | 0.0 | 0.0 | 0.00 | 0.00 | 0.00 | 83 | 1017.1 |
| 20260905144056 | 27 | 116 | 0.0 | 0.0 | 0.00 | 0.00 | 0.00 | 83 | 1017.0 |
| 20260905143555 | 27 | 171 | 0.0 | 0.0 | 0.00 | 0.00 | 0.00 | 82 | 1017.2 |
| 20260905143050 | 27 | 122 | 0.0 | 0.0 | 0.00 | 0.00 | 0.00 | 82 | 1017.1 |
| 20260905142550 | 27 | 141 | 0.0 | 0.0 | 0.00 | 0.00 | 0.00 | 84 | 1017.2 |
| 20260905142049 | 26 | 166 | 0.0 | 0.0 | 0.00 | 0.00 | 0.00 | 89 | 1017.0 |
| 20260905141544 | 26 | 165 | 0.0 | 0.0 | 0.00 | 0.00 | 0.00 | 89 | 1017.2 |
| 20260905141041 | 26 | 165 | 0.0 | 0.0 | 0.00 | 0.00 | 0.00 | 89 | 1017.0 |
| 20260905140536 | 26 | 165 | 0.0 | 0.0 | 0.00 | 0.00 | 0.00 | 89 | 1017.3 |
| 20260905140035 | 26 | 134 | 0.0 | 0.0 | 0.00 | 0.00 | 0.00 | 90 | 1017.2 |
| 20260905135530 | 25 | 142 | 0.0 | 0.0 | 0.00 | 0.00 | 0.00 | 90 | 1017.2 |
| 20260905135025 | 25 | 170 | 0.0 | 0.0 | 0.00 | 0.00 | 0.00 | 92 | 1017.0 |
| 20260905134520 | 25 | 171 | 0.0 | 0.0 | 0.00 | 0.00 | 0.00 | 93 | 1017.2 |
| 20260905134019 | 25 | 170 | 0.0 | 0.0 | 0.00 | 0.00 | 0.00 | 93 | 1017.3 |
| 20260905133514 | 25 | 170 | 0.0 | 0.0 | 0.00 | 0.00 | 0.00 | 93 | 1017.4 |
| 20260905133014 | 25 | 171 | 0.0 | 0.0 | 0.00 | 0.00 | 0.00 | 92 | 1017.2 |
| 20260905132508 | 25 | 171 | 0.0 | 0.0 | 0.00 | 0.00 | 0.00 | 93 | 1017.6 |
| 20260905132009 | 25 | 171 | 0.0 | 0.0 | 0.00 | 0.00 | 0.00 | 93 | 1017.5 |
| 20260905131504 | 25 | 170 | 0.0 | 0.0 | 0.00 | 0.00 | 0.00 | 93 | 1017.9 |
| 20260905131000 | 25 | 173 | 0.0 | 0.0 | 0.00 | 0.00 | 0.00 | 93 | 1017.5 |
| 20260905130458 | 25 | 174 | 0.0 | 0.0 | 0.00 | 0.00 | 0.00 | 93 | 1017.5 |
| 20260905125958 | 25 | 186 | 0.0 | 0.0 | 0.00 | 0.00 | 0.00 | 95 | 1017.5 |
| 20260905125453 | 24 | 186 | 0.0 | 0.0 | 0.00 | 0.00 | 0.00 | 96 | 1017.7 |
| 20260905124949 | 24 | 186 | 0.0 | 0.0 | 0.00 | 0.00 | 0.00 | 96 | 1017.4 |
| 20260905124445 | 24 | 186 | 0.0 | 0.0 | 0.00 | 0.00 | 0.00 | 97 | 1017.3 |
| 20260905123940 | 23 | 187 | 0.0 | 0.0 | 0.00 | 0.00 | 0.00 | 97 | 1017.6 |
| 20260905123437 | 23 | 187 | 0.0 | 0.0 | 0.00 | 0.00 | 0.00 | 99 | 1017.4 |
| 20260905122937 | 23 | 187 | 0.0 | 0.0 | 0.00 | 0.00 | 0.00 | 99 | 1017.4 |
| 20260905122437 | 23 | 187 | 0.0 | 0.0 | 0.00 | 0.00 | 0.00 | 99 | 1017.4 |
| 20260905121932 | 22 | 187 | 0.0 | 0.0 | 0.00 | 0.00 | 0.00 | 99 | 1017.1 |
| 20260905121428 | 22 | 187 | 0.0 | 0.0 | 0.00 | 0.00 | 0.00 | 99 | 1017.3 |
| 20260905120926 | 22 | 187 | 0.0 | 0.0 | 0.00 | 0.00 | 0.00 | 99 | 1017.3 |
| 20260905120421 | 22 | 187 | 0.0 | 0.0 | 0.00 | 0.00 | 0.00 | 99 | 1017.2 |
| 20260905115916 | 22 | 187 | 0.0 | 0.0 | 0.00 | 0.00 | 0.00 | 99 | 1017.0 |
| 20260905115415 | 22 | 187 | 0.0 | 0.0 | 0.00 | 0.00 | 0.00 | 99 | 1016.9 |
| 20260905114910 | 22 | 187 | 0.0 | 0.0 | 0.00 | 0.00 | 0.00 | 99 | 1016.9 |
| 20260905114404 | 22 | 187 | 0.0 | 0.0 | 0.00 | 0.00 | 0.00 | 99 | 1016.8 |
| 20260905113904 | 22 | 187 | 0.0 | 0.0 | 0.00 | 0.00 | 0.00 | 99 | 1016.9 |